Location: Castelbiague
(43.0361°N, 0.9246°E)
Time: 15:02:14
(UTC+00:00)

Cosmos 389 Rocket - Pass Details

Date: 17 June 2021
Orbit: 440 x 471 km, 81.1° (Epoch: 05 August)

Event Time Altitude Azimuth Distance (km) Brightness Sun altitude
Rises 22:59:18 0° 344° (NNW) 2,444 7.7 -22.2°
Reaches altitude 10° 23:01:24 10° 339° (NNW) 1,571 6.3 -22.3°
Enters shadow 23:04:19 46° 289° (WNW) 608 3.2 -22.4°
